CW6981 Weather Reports


time (UTC)temp
C
wind
direction
speed
KPH
gust
KPH
rain 1hr
cm
rain 24hr
cm
rain mn
cm
humidity
%
barometer
mb
20240222120543 0 104 0.0 0.0 0.00 0.00 0.00 81 1016.7
20240222120038 0 104 0.0 0.0 0.00 0.00 0.00 81 1016.6
20240222115533 0 104 0.0 0.0 0.00 0.00 0.00 81 1016.7
20240222115027 0 104 0.0 0.0 0.00 0.00 0.00 82 1016.7
20240222114600 0 104 0.0 0.0 0.00 0.00 0.00 82 1016.6
20240222114033 0 104 0.0 0.0 0.00 0.00 0.00 82 1016.5
20240222113546 0 104 0.0 0.0 0.00 0.00 0.00 82 1016.5
20240222113039 0 104 0.0 0.0 0.00 0.00 0.00 81 1016.5
20240222112548 -1 104 0.0 0.0 0.00 0.00 0.00 81 1016.4
20240222112040 -1 104 0.0 0.0 0.00 0.00 0.00 80 1016.4
20240222111536 -1 104 0.0 0.0 0.00 0.00 0.00 80 1016.4
20240222111030 -1 104 0.0 0.0 0.00 0.00 0.00 79 1016.4
20240222110523 -1 104 0.0 0.0 0.00 0.00 0.00 79 1016.4
20240222110036 -1 104 0.0 0.0 0.00 0.00 0.00 79 1016.3
20240222105532 -1 104 0.0 0.0 0.00 0.00 0.00 79 1016.3
20240222105035 -1 104 0.0 0.0 0.00 0.00 0.00 79 1016.3
20240222104531 -1 104 0.0 1.6 0.00 0.00 0.00 79 1016.4
20240222104047 -1 104 0.0 1.6 0.00 0.00 0.00 79 1016.2
20240222103541 -1 104 0.0 1.6 0.00 0.00 0.00 78 1016.1
20240222103037 -1 104 0.0 1.6 0.00 0.00 0.00 78 1016.0
20240222102532 -1 104 0.0 0.0 0.00 0.00 0.00 78 1016.1
20240222102027 -1 104 0.0 0.0 0.00 0.00 0.00 78 1016.0
20240222101542 -1 104 0.0 0.0 0.00 0.00 0.00 78 1016.0
20240222101037 -1 104 0.0 0.0 0.00 0.00 0.00 78 1015.9
20240222100530 0 104 0.0 0.0 0.00 0.00 0.00 77 1016.0
20240222100024 0 104 0.0 1.6 0.00 0.00 0.00 77 1016.0
20240222095539 0 104 0.0 1.6 0.00 0.00 0.00 77 1015.9
20240222095032 0 104 0.0 0.0 0.00 0.00 0.00 77 1015.9
20240222094528 0 104 0.0 0.0 0.00 0.00 0.00 76 1015.7
20240222094043 0 104 0.0 0.0 0.00 0.00 0.00 77 1015.6
20240222093538 0 104 0.0 0.0 0.00 0.00 0.00 76 1015.6
20240222093042 0 104 0.0 0.0 0.00 0.00 0.00 76 1015.5
20240222092536 0 104 0.0 0.0 0.00 0.00 0.00 76 1015.2
20240222092035 0 104 0.0 1.6 0.00 0.00 0.00 76 1015.2
20240222091529 0 104 0.0 1.6 0.00 0.00 0.00 76 1015.2
20240222091039 0 104 0.0 0.0 0.00 0.00 0.00 76 1015.1
20240222090553 0 104 0.0 0.0 0.00 0.00 0.00 76 1015.2
20240222090029 0 104 0.0 0.0 0.00 0.00 0.00 76 1015.3
20240222085542 0 104 0.0 0.0 0.00 0.00 0.00 75 1015.3
20240222085112 0 104 0.0 0.0 0.00 0.00 0.00 75 1015.2
20240222084534 0 104 0.0 0.0 0.00 0.00 0.00 75 1015.1
20240222084026 0 104 0.0 0.0 0.00 0.00 0.00 75 1015.2
20240222083551 0 104 0.0 0.0 0.00 0.00 0.00 75 1015.2
20240222083104 0 104 0.0 0.0 0.00 0.00 0.00 75 1015.2
20240222082536 0 104 0.0 0.0 0.00 0.00 0.00 74 1015.2
20240222082026 0 104 0.0 0.0 0.00 0.00 0.00 73 1015.1
20240222081540 0 104 0.0 1.6 0.00 0.00 0.00 73 1015.1
20240222081032 1 104 0.0 1.6 0.00 0.00 0.00 73 1015.0
20240222080525 1 104 0.0 0.0 0.00 0.00 0.00 73 1015.0
20240222080038 1 104 0.0 0.0 0.00 0.00 0.00 72 1015.0
20240222075546 1 104 0.0 0.0 0.00 0.00 0.00 72 1015.0
20240222075030 1 104 0.0 0.0 0.00 0.00 0.00 72 1015.0
20240222074542 1 104 0.0 0.0 0.00 0.00 0.00 73 1015.1
20240222074036 1 104 0.0 0.0 0.00 0.00 0.00 73 1015.1
20240222073528 1 104 0.0 0.0 0.00 0.00 0.00 73 1015.1
20240222073040 1 104 0.0 0.0 0.00 0.00 0.00 73 1015.1
20240222072532 1 104 0.0 0.0 0.00 0.00 0.00 73 1015.2
20240222072042 1 104 0.0 0.0 0.00 0.00 0.00 72 1015.3
20240222071533 1 104 0.0 0.0 0.00 0.00 0.00 72 1015.2
20240222071044 1 104 0.0 0.0 0.00 0.00 0.00 70 1015.3
20240222070533 1 104 0.0 1.6 0.00 0.00 0.00 70 1015.1
20240222070106 1 104 0.0 1.6 0.00 0.00 0.00 70 1015.1
20240222065550 1 104 0.0 1.6 0.00 0.00 0.00 69 1015.1
20240222065038 2 104 0.0 1.6 0.00 0.00 0.00 68 1015.0
20240222064552 2 104 0.0 0.0 0.00 0.00 0.00 67 1015.1
20240222064044 2 104 0.0 0.0 0.00 0.00 0.00 67 1015.1
20240222063533 2 104 0.0 1.6 0.00 0.00 0.00 66 1015.1
20240222063039 2 104 0.0 1.6 0.00 0.00 0.00 67 1015.0
20240222062531 2 104 0.0 1.6 0.00 0.00 0.00 66 1015.0
20240222062100 2 104 0.0 1.6 0.00 0.00 0.00 65 1015.0
20240222061533 2 104 0.0 1.6 0.00 0.00 0.00 65 1015.0
20240222061044 2 104 0.0 1.6 0.00 0.00 0.00 66 1015.0
20240222060531 2 104 0.0 1.6 0.00 0.00 0.00 63 1015.0
20240222060043 2 110 0.0 3.2 0.00 0.00 0.00 62 1015.1
20240222055534 2 110 0.0 3.2 0.00 0.00 0.00 65 1015.0
20240222055030 2 54 1.6 3.2 0.00 0.00 0.00 64 1015.0
20240222054543 2 53 0.0 1.6 0.00 0.00 0.00 60 1015.1
20240222054038 3 102 0.0 0.0 0.00 0.00 0.00 58 1015.0
20240222053551 3 102 0.0 1.6 0.00 0.00 0.00 57 1015.0
20240222053024 3 102 0.0 1.6 0.00 0.00 0.00 57 1015.0
20240222052541 3 102 0.0 1.6 0.00 0.00 0.00 57 1014.9
20240222052037 3 102 0.0 1.6 0.00 0.00 0.00 56 1014.8
20240222051532 3 102 0.0 1.6 0.00 0.00 0.00 56 1014.7
20240222051035 3 102 0.0 1.6 0.00 0.00 0.00 55 1014.6
20240222050528 4 102 0.0 0.0 0.00 0.00 0.00 54 1014.5
20240222050041 4 102 0.0 1.6 0.00 0.00 0.00 54 1014.4
20240222045537 4 102 0.0 1.6 0.00 0.00 0.00 53 1014.3
20240222045051 5 102 0.0 0.0 0.00 0.00 0.00 53 1014.2
20240222044559 5 102 0.0 0.0 0.00 0.00 0.00 52 1014.1
20240222044026 5 102 0.0 1.6 0.00 0.00 0.00 52 1014.0
20240222043543 5 102 0.0 1.6 0.00 0.00 0.00 52 1013.9
20240222043024 5 102 0.0 1.6 0.00 0.00 0.00 52 1013.9
20240222042542 5 102 0.0 1.6 0.00 0.00 0.00 53 1013.9
20240222042039 6 102 0.0 0.0 0.00 0.00 0.00 53 1013.8
20240222041528 6 102 0.0 0.0 0.00 0.00 0.00 54 1013.8
20240222041031 6 102 0.0 0.0 0.00 0.00 0.00 53 1013.7
20240222040536 6 102 0.0 0.0 0.00 0.00 0.00 53 1013.5
20240222040036 6 102 0.0 1.6 0.00 0.00 0.00 52 1013.5
20240222035555 7 102 0.0 1.6 0.00 0.00 0.00 51 1013.4
20240222035031 7 102 0.0 0.0 0.00 0.00 0.00 51 1013.4
20240222034524 7 102 0.0 0.0 0.00 0.00 0.00 51 1013.4
20240222034040 7 102 0.0 0.0 0.00 0.00 0.00 51 1013.4
20240222033532 7 102 0.0 0.0 0.00 0.00 0.00 51 1013.3
20240222033027 7 102 0.0 0.0 0.00 0.00 0.00 50 1013.2
20240222032532 8 102 0.0 0.0 0.00 0.00 0.00 50 1013.1
20240222032041 8 102 0.0 1.6 0.00 0.00 0.00 50 1012.9
20240222031556 8 102 0.0 1.6 0.00 0.00 0.00 50 1012.8
20240222031029 8 102 0.0 3.2 0.00 0.00 0.00 49 1012.7
20240222030537 8 102 0.0 3.2 0.00 0.00 0.00 49 1012.7
20240222030030 8 94 0.0 6.4 0.00 0.00 0.00 48 1012.5
20240222025526 8 94 0.0 6.4 0.00 0.00 0.00 48 1012.5
20240222025040 8 152 0.0 3.2 0.00 0.00 0.00 47 1012.4
20240222024532 9 152 0.0 3.2 0.00 0.00 0.00 46 1012.3
20240222024042 9 176 0.0 3.2 0.00 0.00 0.00 43 1012.3
20240222023552 9 135 1.6 3.2 0.00 0.00 0.00 41 1012.2
20240222023043 10 103 0.0 3.2 0.00 0.00 0.00 41 1012.0
20240222022534 10 103 0.0 1.6 0.00 0.00 0.00 41 1011.9
20240222022023 10 103 0.0 1.6 0.00 0.00 0.00 40 1012.0
20240222021532 10 103 0.0 0.0 0.00 0.00 0.00 39 1011.9
20240222021043 10 103 0.0 3.2 0.00 0.00 0.00 39 1011.8
20240222020553 10 103 0.0 6.4 0.00 0.00 0.00 37 1011.7
20240222020103 10 104 1.6 8.0 0.00 0.00 0.00 34 1011.6
20240222015532 10 112 1.6 9.7 0.00 0.00 0.00 28 1011.6
20240222015023 11 110 1.6 9.7 0.00 0.00 0.00 29 1011.4
20240222014538 11 264 1.6 8.0 0.00 0.00 0.00 28 1011.1
20240222014028 11 260 3.2 8.0 0.00 0.00 0.00 28 1011.1
20240222013538 11 254 1.6 9.7 0.00 0.00 0.00 27 1011.0
20240222013028 11 244 4.8 9.7 0.00 0.00 0.00 27 1011.0
20240222012540 11 280 3.2 6.4 0.00 0.00 0.00 26 1011.0
20240222012028 11 282 1.6 6.4 0.00 0.00 0.00 25 1011.0
20240222011540 11 289 3.2 8.0 0.00 0.00 0.00 25 1010.9
20240222011037 12 264 1.6 9.7 0.00 0.00 0.00 24 1010.9
20240222010529 12 266 3.2 9.7 0.00 0.00 0.00 23 1010.8
20240222010043 12 270 1.6 6.4 0.00 0.00 0.00 23 1010.8
20240222005538 12 258 1.6 4.8 0.00 0.00 0.00 21 1010.8
20240222005030 13 269 1.6 1.6 0.00 0.00 0.00 20 1010.7
20240222004536 13 269 0.0 1.6 0.00 0.00 0.00 20 1010.5
20240222004030 13 269 0.0 4.8 0.00 0.00 0.00 19 1010.3
20240222003523 13 269 1.6 4.8 0.00 0.00 0.00 18 1010.1
20240222003039 13 270 3.2 9.7 0.00 0.00 0.00 18 1010.1
20240222002534 13 258 3.2 9.7 0.00 0.00 0.00 17 1010.0
20240222002028 14 37 0.0 6.4 0.00 0.00 0.00 17 1010.0
20240222001537 14 356 1.6 6.4 0.00 0.00 0.00 17 1010.0
20240222001033 14 250 0.0 3.2 0.00 0.00 0.00 16 1010.0
20240222000543 14 250 0.0 3.2 0.00 0.00 0.00 16 1009.9
20240222000024 15 266 0.0 3.2 0.00 0.00 0.00 16 1009.8
20240221235543 15 325 0.0 3.2 0.00 0.00 0.00 17 1009.7
20240221235035 15 260 0.0 3.2 0.00 0.00 0.00 15 1009.6
20240221234552 15 260 0.0 3.2 0.00 0.00 0.00 15 1009.5
20240221234027 15 254 1.6 3.2 0.00 0.00 0.00 15 1009.4
20240221233539 15 20 1.6 3.2 0.00 0.00 0.00 14 1009.4
20240221233032 15 271 1.6 3.2 0.00 0.00 0.00 15 1009.4
20240221232526 15 294 0.0 4.8 0.00 0.00 0.00 15 1009.2
20240221232042 15 273 0.0 4.8 0.00 0.00 0.00 15 1009.1
20240221231536 15 326 0.0 3.2 0.00 0.00 0.00 15 1009.1
20240221231029 15 340 0.0 4.8 0.00 0.00 0.00 16 1009.1
20240221230544 15 312 0.0 8.0 0.00 0.00 0.00 15 1009.0
20240221230058 15 293 1.6 8.0 0.00 0.00 0.00 16 1009.0
20240221225532 15 263 0.0 4.8 0.00 0.00 0.00 15 1009.0
20240221225024 15 75 0.0 3.2 0.00 0.00 0.00 15 1009.0
20240221224539 15 264 1.6 6.4 0.00 0.00 0.00 15 1008.9
20240221224031 15 314 1.6 9.7 0.00 0.00 0.00 15 1008.8
20240221223541 15 302 3.2 9.7 0.00 0.00 0.00 15 1008.7
20240221223048 15 71 1.6 9.7 0.00 0.00 0.00 15 1008.8
20240221222540 15 77 1.6 9.7 0.00 0.00 0.00 15 1008.7
20240221222028 16 288 1.6 9.7 0.00 0.00 0.00 15 1008.7
20240221221524 16 87 1.6 9.7 0.00 0.00 0.00 15 1008.8
20240221221039 16 250 3.2 6.4 0.00 0.00 0.00 15 1008.8
20240221220528 16 313 1.6 6.4 0.00 0.00 0.00 16 1008.7
20240221220022 16 123 1.6 8.0 0.00 0.00 0.00 17 1008.5
20240221215537 16 286 0.0 8.0 0.00 0.00 0.00 16 1008.4
20240221215026 16 277 1.6 8.0 0.00 0.00 0.00 16 1008.4
20240221214537 16 306 1.6 9.7 0.00 0.00 0.00 17 1008.3
20240221214049 16 264 3.2 11.3 0.00 0.00 0.00 17 1008.3
20240221213538 17 303 1.6 11.3 0.00 0.00 0.00 16 1008.2
20240221213049 17 302 1.6 9.7 0.00 0.00 0.00 18 1008.2
20240221212543 17 258 3.2 9.7 0.00 0.00 0.00 18 1008.1
20240221212034 17 51 1.6 6.4 0.00 0.00 0.00 18 1008.1
20240221211527 17 331 1.6 6.4 0.00 0.00 0.00 17 1008.0
20240221211039 17 259 1.6 8.0 0.00 0.00 0.00 18 1008.0
20240221210536 17 272 1.6 8.0 0.00 0.00 0.00 17 1007.9
20240221210028 17 271 3.2 9.7 0.00 0.00 0.00 16 1008.0
20240221205540 17 351 3.2 9.7 0.00 0.00 0.00 16 1008.0
20240221205029 17 245 1.6 11.3 0.00 0.00 0.00 16 1008.0
20240221204536 17 148 1.6 11.3 0.00 0.00 0.00 16 1008.0
20240221204028 17 266 3.2 9.7 0.00 0.00 0.00 16 1007.9
20240221203538 17 266 1.6 9.7 0.00 0.00 0.00 16 1008.0
20240221203054 17 60 0.0 4.8 0.00 0.00 0.00 17 1008.0
20240221202528 17 271 1.6 4.8 0.00 0.00 0.00 17 1008.0
20240221202028 17 314 1.6 4.8 0.00 0.00 0.00 17 1008.1
20240221201604 17 259 1.6 4.8 0.00 0.00 0.00 16 1008.2
20240221201039 17 262 0.0 4.8 0.00 0.00 0.00 16 1008.3
20240221200542 16 281 1.6 9.7 0.00 0.00 0.00 17 1008.3
20240221200034 17 287 4.8 9.7 0.00 0.00 0.00 16 1008.3
20240221195529 16 272 1.6 9.7 0.00 0.00 0.00 17 1008.5
20240221195042 16 285 1.6 4.8 0.00 0.00 0.00 17 1008.5
20240221194531 16 322 1.6 9.7 0.00 0.00 0.00 18 1008.6
20240221194106 16 268 3.2 9.7 0.00 0.00 0.00 16 1008.8
20240221193537 16 25 1.6 6.4 0.00 0.00 0.00 17 1008.9
20240221193030 16 295 0.0 6.4 0.00 0.00 0.00 16 1008.8
20240221192541 16 48 1.6 4.8 0.00 0.00 0.00 17 1009.0
20240221192033 16 262 1.6 8.0 0.00 0.00 0.00 17 1009.1
20240221191527 16 346 1.6 8.0 0.00 0.00 0.00 16 1009.2
20240221191041 16 71 1.6 8.0 0.00 0.00 0.00 17 1009.3
20240221190530 16 264 3.2 11.3 0.00 0.00 0.00 17 1009.4
20240221190025 16 225 1.6 11.3 0.00 0.00 0.00 16 1009.4
20240221185541 16 293 1.6 4.8 0.00 0.00 0.00 17 1009.6
20240221185053 16 333 1.6 4.8 0.00 0.00 0.00 17 1009.6
20240221184546 16 23 1.6 9.7 0.00 0.00 0.00 17 1009.7
20240221184040 16 255 1.6 9.7 0.00 0.00 0.00 17 1009.8
20240221183532 16 312 1.6 6.4 0.00 0.00 0.00 17 1009.9
20240221183027 16 279 3.2 8.0 0.00 0.00 0.00 18 1010.0
20240221182524 16 65 3.2 8.0 0.00 0.00 0.00 17 1010.0
20240221182100 15 285 1.6 6.4 0.00 0.00 0.00 18 1010.2
20240221181532 15 263 1.6 6.4 0.00 0.00 0.00 19 1010.2
20240221181028 15 49 3.2 6.4 0.00 0.00 0.00 18 1010.4
20240221180600 15 218 3.2 6.4 0.00 0.00 0.00 18 1010.4
20240221180033 15 269 1.6 4.8 0.00 0.00 0.00 19 1010.6
20240221175531 15 283 0.0 4.8 0.00 0.00 0.00 19 1010.7
20240221175043 15 291 3.2 4.8 0.00 0.00 0.00 20 1010.9
20240221174526 15 258 1.6 8.0 0.00 0.00 0.00 19 1010.9
20240221174041 14 8 1.6 8.0 0.00 0.00 0.00 20 1011.0
20240221173531 14 263 3.2 6.4 0.00 0.00 0.00 19 1011.0
20240221173037 13 336 1.6 8.0 0.00 0.00 0.00 20 1011.1
20240221172530 13 53 3.2 8.0 0.00 0.00 0.00 20 1011.2
20240221172040 13 302 3.2 8.0 0.00 0.00 0.00 21 1011.3
20240221171531 12 15 3.2 6.4 0.00 0.00 0.00 22 1011.4
20240221171043 12 261 1.6 9.7 0.00 0.00 0.00 25 1011.6
20240221170535 11 272 1.6 9.7 0.00 0.00 0.00 24 1011.7
20240221170104 11 294 1.6 6.4 0.00 0.00 0.00 30 1011.7
20240221165536 10 84 0.0 3.2 0.00 0.00 0.00 37 1012.0
20240221165025 10 83 0.0 6.4 0.00 0.00 0.00 42 1011.9
20240221164536 9 83 1.6 6.4 0.00 0.00 0.00 47 1012.0
20240221164028 8 100 1.6 6.4 0.00 0.00 0.00 49 1012.1
20240221163558 7 101 1.6 3.2 0.00 0.00 0.00 50 1012.1
20240221163026 7 101 1.6 3.2 0.00 0.00 0.00 51 1012.2
20240221162601 7 101 0.0 1.6 0.00 0.00 0.00 53 1012.3
20240221162032 6 101 0.0 1.6 0.00 0.00 0.00 55 1012.4
20240221161526 6 101 0.0 3.2 0.00 0.00 0.00 57 1012.4
20240221161035 5 101 0.0 3.2 0.00 0.00 0.00 59 1012.5
20240221160545 5 101 0.0 3.2 0.00 0.00 0.00 62 1012.5
20240221160036 4 50 0.0 1.6 0.00 0.00 0.00 64 1012.6
20240221155529 3 50 0.0 1.6 0.00 0.00 0.00 67 1012.7
20240221155038 3 50 0.0 1.6 0.00 0.00 0.00 68 1012.8
20240221154529 2 50 0.0 1.6 0.00 0.00 0.00 71 1012.9
20240221154042 2 50 0.0 1.6 0.00 0.00 0.00 74 1012.8
20240221153531 1 50 0.0 1.6 0.00 0.00 0.00 77 1013.0
20240221153042 1 38 1.6 1.6 0.00 0.00 0.00 79 1013.0
20240221152545 1 327 0.0 1.6 0.00 0.00 0.00 80 1013.1
20240221152040 0 327 0.0 1.6 0.00 0.00 0.00 80 1013.2
20240221151538 0 327 0.0 1.6 0.00 0.00 0.00 81 1013.2
20240221151030 0 327 0.0 1.6 0.00 0.00 0.00 82 1013.1
20240221150602 0 327 0.0 1.6 0.00 0.00 0.00 82 1013.2
20240221150036 0 327 0.0 1.6 0.00 0.00 0.00 82 1013.2
20240221145539 -1 327 0.0 3.2 0.00 0.00 0.00 81 1013.3
20240221145043 -1 327 0.0 3.2 0.00 0.00 0.00 81 1013.3
20240221144538 -1 320 0.0 1.6 0.00 0.00 0.00 80 1013.3
20240221144032 -1 320 0.0 1.6 0.00 0.00 0.00 80 1013.3
20240221143545 -1 314 0.0 1.6 0.00 0.00 0.00 79 1013.2
20240221143038 -1 314 0.0 1.6 0.00 0.00 0.00 78 1013.1
20240221142533 -1 314 0.0 0.0 0.00 0.00 0.00 78 1013.1
20240221142027 -1 314 0.0 0.0 0.00 0.00 0.00 78 1013.2
20240221141543 -1 314 0.0 1.6 0.00 0.00 0.00 78 1013.3
20240221141038 -1 314 0.0 1.6 0.00 0.00 0.00 78 1013.2
20240221140552 -1 314 0.0 0.0 0.00 0.00 0.00 78 1013.2
20240221140025 -1 314 0.0 0.0 0.00 0.00 0.00 78 1013.3
20240221135541 -1 314 0.0 0.0 0.00 0.00 0.00 78 1013.4
20240221135034 -1 314 0.0 0.0 0.00 0.00 0.00 77 1013.4
20240221134530 -1 314 0.0 0.0 0.00 0.00 0.00 77 1013.4
20240221134045 -1 314 0.0 0.0 0.00 0.00 0.00 77 1013.4
20240221133538 -1 314 0.0 0.0 0.00 0.00 0.00 77 1013.3
20240221133053 -1 314 0.0 1.6 0.00 0.00 0.00 77 1013.4
20240221132533 -1 314 0.0 1.6 0.00 0.00 0.00 77 1013.4
20240221132027 -1 314 0.0 0.0 0.00 0.00 0.00 77 1013.3
20240221131543 -1 314 0.0 0.0 0.00 0.00 0.00 76 1013.5
20240221131058 0 314 0.0 0.0 0.00 0.00 0.00 76 1013.6
20240221130530 0 314 0.0 1.6 0.00 0.00 0.00 76 1013.7
20240221130025 0 314 0.0 1.6 0.00 0.00 0.00 76 1013.7
20240221125540 0 314 0.0 0.0 0.00 0.00 0.00 76 1013.7
20240221125034 0 314 0.0 1.6 0.00 0.00 0.00 76 1013.6
20240221124530 0 314 0.0 1.6 0.00 0.00 0.00 76 1013.7
20240221124028 0 314 0.0 1.6 0.00 0.00 0.00 76 1013.8
20240221123542 0 314 0.0 0.0 0.00 0.00 0.00 76 1013.8
20240221123026 0 314 0.0 0.0 0.00 0.00 0.00 76 1013.8
20240221122555 0 314 0.0 3.2 0.00 0.00 0.00 76 1013.9
20240221122025 0 314 0.0 3.2 0.00 0.00 0.00 75 1014.0
20240221121540 0 314 0.0 0.0 0.00 0.00 0.00 74 1014.0
20240221121034 0 314 0.0 0.0 0.00 0.00 0.00 74 1014.1